Skip Page Navigation
NASA JPL Caltech
NASA Logo - Jet Propulsion Laboratory + View the NASA Portal
+ Center for Near-Earth Object Studies
JPL Home Earth Solar System Stars & Galaxies Technology
JPL Solar System Dynamics
BODIES ORBITS EPHEMERIDES TOOLS PHYSICAL DATA DISCOVERY FAQ SITE MAP
IMPORTANT: The SSD Announcement email list is now available. Major changes are coming in the near future, including possible hostname and/or URL changes. To be notified of such changes, subscribe to this email list.

Please visit this page for more details.


JPL Small-Body Database Browser
Search: [ help ]  
62794 Scheirich (2000 UV30)
Classification: Main-belt Asteroid          SPK-ID: 2062794
Ephemeris | Orbit Diagram | Orbital Elements | Mission Design | Physical Parameters | Discovery Circumstances | Close-Approach Data ]

[ hide orbit diagram ]

For accurate long-term ephemerides, please instead use our Horizons system.This orbit viewer was implemented using two-body methods, and hence should not be used for determining accurate long-term trajectories (over several years or decades) or planetary encounter circumstances.


[ revert to old Java-based viewer ]

Orbital Elements at Epoch 2459000.5 (2020-May-31.0) TDB
Reference: JPL 14 (heliocentric ecliptic J2000)
 Element Value Uncertainty (1-sigma)   Units 
e .114431686787529 5.3956e-08  
a 3.146489702561201 2.7756e-08 au
q 2.786431578437532 1.6864e-07 au
i 3.611356376544988 5.6761e-06 deg
node 62.70032294636034 9.8515e-05 deg
peri 312.6418743546741 0.0001019 deg
M 211.9338957276294 2.7286e-05 deg
tp 2459838.976795533055
(2022-Sep-16.47679553)
0.0001587 TDB
period 2038.627597283423
5.58
2.6975e-05
7.385e-08
d
yr
n .1765893881156708 2.3366e-09 deg/d
Q 3.50654782668487 3.0932e-08 au
  Orbit Determination Parameters
   # obs. used (total)      636  
   data-arc span      7888 days (21.60 yr)  
   first obs. used      1998-06-25  
   last obs. used      2020-01-29  
   planetary ephem.      DE431  
   SB-pert. ephem.      SB431-N16  
   condition code      0  
   norm. resid. RMS      .5866  
   source      ORB  
   producer      Otto Matic  
   solution date      2020-Feb-23 13:50:32  

Additional Information
 Earth MOID = 1.78933 au 
 Jupiter MOID = 1.95752 au 
 T_jup = 3.196 
[ show covariance matrix ]

Ephemeris | Orbit Diagram | Orbital Elements | Mission Design | Physical Parameters | Discovery Circumstances | Close-Approach Data ]

Physical Parameter Table
Parameter Symbol Value Units Sigma Reference Notes
absolute magnitude H 14.6   n/a MPO432182  

62794 Scheirich           Discovered 2000 Oct. 30 by P. Pravec and P. Kusnirak at Ondrejov.
Petr Scheirich (b. 1979) is an astronomer at the Ondřejov Observatory who is an expert in modeling of binary and tumbling asteroids from photometric observations. He also engages in meteorite field searches.
NOTE: some special characters may not display properly (any characters within {} are an attempt to place the proper accent above a character)
Reference: MPC batch dated 2014-07-12Last Updated: 2014-08-13

[ show close-approach data ]
Alternate Designations
 2000 UV30 = 1998 MW48 
Ephemeris | Orbit Diagram | Orbital Elements | Mission Design | Physical Parameters | Discovery Circumstances | Close-Approach Data ]
ABOUT SSD CREDITS/AWARDS PRIVACY/COPYRIGHT GLOSSARY LINKS
FirstGov 2020-Apr-07 12:35 UT
(server date/time)  
NASA Home Page
Site Manager:   Ryan S. Park
Webmaster  Alan B. Chamberlin